Wind_Speed
9 8 7 7 7 7 6 7 7 8 10 10 11 10 9 9 9 8 7 7 8 9 10 10 9 10 9 8 8 8 8 9 9 10 10 7 8 11 11 13 16 16 17 16 16 16 15 15 14 13 13 12 11 10 7 6 7 6 3 2 1 1 3 5 5 7 6 9 10 11 11 8 9 10 10 9 9 11 10 10 11 11 14 19 26 30 29 28
9 8 7 6 7 7 7 7 7 9 10 11 12 12 11 10 10 9 8 8 7 8 9 10 10 9 9 8 7 7 8 8 9 12 11 9 9 10 12 14 16 17 19 19 19 18 16 15 15 14 14 11 9 7 6 5 7 6 0 2 1 2 6 7 7 11 10 8 11 13 12 7 9 12 12 9 10 12 10 11 13 15 20 24 29 29 28 28
11 9 8 7 6 7 7 7 7 8 9 10 12 12 13 12 11 10 9 8 8 7 8 8 10 9 8 8 8 7 6 7 11 11 8 8 9 9 11 14 16 18 19 19 18 17 14 14 14 15 14 11 9 7 7 5 5 4 0 1 1 2 6 10 7 9 12 11 11 12 11 9 9 12 9 7 10 11 9 11 15 19 24 27 29 29 28 27
12 11 9 8 7 7 8 8 8 8 9 10 11 12 13 13 13 12 10 9 8 8 7 7 9 8 8 8 7 6 6 8 7 5 5 7 8 8 11 15 17 19 19 16 16 16 12 12 14 16 14 11 10 9 8 5 4 3 2 2 1 2 3 7 8 9 10 11 11 11 11 9 10 11 8 7 9 8 8 13 17 20 25 28 29 29 28 26
12 11 10 10 9 9 9 9 9 8 9 9 10 11 12 13 13 13 12 11 9 8 7 6 7 7 7 7 7 6 5 4 2 5 6 8 6 8 12 16 18 20 19 15 15 15 13 12 14 15 13 11 10 9 8 7 7 3 4 8 6 1 2 4 7 8 7 10 11 10 9 7 11 13 10 6 6 6 9 14 18 21 25 28 29 29 27 26
11 11 11 10 10 10 10 10 10 10 9 9 10 11 11 13 13 13 13 12 10 8 7 6 5 6 5 6 7 5 5 3 4 2 7 5 5 8 14 17 20 23 18 15 16 15 14 13 14 15 13 11 9 8 8 8 8 3 6 12 7 1 1 3 5 6 5 9 10 8 10 10 11 13 14 7 6 8 12 17 20 22 25 27 28 27 27 25
12 11 11 11 11 11 11 11 12 11 10 10 10 10 11 12 12 13 13 12 10 9 7 6 5 4 4 5 5 5 10 6 4 1 4 2 5 11 16 17 22 24 16 16 17 15 14 14 15 14 11 9 8 9 6 7 9 5 4 7 3 2 1 2 2 4 4 7 9 9 11 13 9 11 13 7 8 12 14 19 21 23 25 26 26 25 26 25
12 12 11 11 11 11 12 12 13 12 11 10 10 11 11 11 12 12 13 12 10 9 7 6 5 3 3 3 5 8 11 4 4 2 2 2 8 14 18 20 25 21 14 18 18 16 15 15 15 13 10 8 7 8 6 6 9 9 6 3 2 4 2 1 1 3 5 7 10 10 10 10 9 12 13 9 11 15 17 20 23 24 25 24 24 24 24 24
13 13 12 12 12 11 12 12 13 13 12 11 11 11 11 11 11 11 11 10 9 9 7 6 5 3 3 2 6 10 4 5 1 1 3 5 10 16 19 21 24 17 13 17 17 16 15 14 16 13 9 8 7 7 7 7 6 7 8 3 3 6 3 3 2 4 5 7 10 10 10 9 10 11 10 12 14 16 18 21 24 25 25 24 23 24 23 23
14 13 13 13 13 12 12 13 13 14 13 12 11 11 11 11 10 9 9 9 8 8 7 6 4 3 4 2 8 7 7 7 2 3 6 7 11 16 16 17 20 15 13 17 16 17 15 12 14 12 9 8 7 7 9 8 2 4 7 5 6 7 4 5 3 4 5 9 9 6 10 10 9 9 4 11 16 16 20 22 24 24 24 23 23 23 23 22
15 14 14 13 13 13 12 13 13 13 13 13 12 11 10 10 9 7 7 7 8 8 7 5 3 4 3 4 12 5 10 6 5 7 8 10 12 15 14 14 17 14 14 15 15 16 14 11 10 8 6 6 6 7 11 11 4 4 6 7 8 9 7 7 4 5 6 8 6 2 7 11 10 6 2 11 17 16 21 23 23 23 22 22 22 23 22 21
16 15 15 14 13 13 12 13 13 13 13 12 11 10 10 9 8 6 6 7 7 7 6 4 3 3 2 8 14 3 7 6 8 9 9 11 11 12 11 14 15 13 12 13 14 14 13 10 9 11 5 4 6 6 8 11 8 7 7 9 9 9 9 8 6 7 8 6 7 4 5 10 7 1 4 11 16 16 20 22 23 23 21 22 22 22 21 21
18 17 15 14 14 13 14 13 13 13 12 12 11 9 9 8 7 6 6 6 6 7 5 3 2 3 3 9 8 4 4 7 10 9 9 9 10 9 10 13 13 11 10 10 11 11 12 9 9 15 9 6 7 1 2 8 9 9 9 9 7 7 8 8 7 7 12 6 8 6 3 7 4 2 4 11 15 17 20 21 22 22 21 22 22 22 21 21
18 17 16 15 14 14 15 14 13 12 11 11 9 8 8 7 6 6 5 6 5 5 2 2 2 4 6 7 3 5 7 9 10 10 10 9 9 9 10 12 11 9 8 8 9 9 10 9 10 14 12 11 8 5 3 9 8 9 9 8 7 5 6 9 8 9 11 8 9 5 3 6 2 3 7 14 15 17 19 21 21 21 22 22 22 22 22 21
18 17 16 16 15 15 15 14 12 11 10 10 8 7 6 6 6 5 5 6 5 5 1 0 2 4 9 8 4 7 11 12 11 12 10 10 9 9 11 12 10 9 8 6 6 7 8 9 11 12 11 12 10 5 7 9 7 9 9 8 8 5 5 9 9 8 11 10 8 4 1 7 5 7 11 14 13 15 18 20 21 21 22 22 22 22 22 22
16 16 16 16 16 15 16 14 11 9 8 8 6 5 5 5 5 3 5 5 6 5 1 2 1 5 9 4 6 9 12 12 13 13 11 10 9 9 11 11 11 9 9 7 4 6 8 9 11 12 11 10 9 6 7 8 8 9 9 8 8 7 6 8 8 11 15 11 7 2 2 5 5 8 12 14 16 18 19 20 20 21 22 22 22 22 23 23
16 16 16 16 16 16 16 13 10 8 7 6 5 4 3 4 3 1 2 5 6 5 2 1 2 8 9 2 5 12 13 11 13 14 13 11 8 9 11 11 12 11 10 8 6 7 9 10 10 10 11 9 8 8 8 9 9 8 8 8 8 10 7 6 7 11 17 13 10 6 2 4 3 5 9 14 19 20 17 20 19 20 21 22 22 22 23 23
15 15 16 16 17 16 16 14 10 7 5 4 3 2 3 3 2 1 2 3 5 4 5 6 6 7 9 9 10 14 14 11 12 13 13 12 8 9 11 11 12 13 12 10 9 10 10 11 9 7 9 9 8 9 9 9 10 10 10 9 8 10 9 6 6 9 12 12 12 9 5 6 3 5 11 20 24 18 13 17 18 18 19 20 22 22 23 23
13 14 15 16 17 16 15 13 9 6 4 2 1 2 3 4 4 4 5 5 8 7 3 7 13 4 1 11 12 12 14 12 12 13 13 12 10 11 10 10 13 15 13 10 10 13 11 10 9 8 8 9 11 12 12 11 10 11 13 11 9 9 10 9 6 7 10 8 10 11 7 9 9 10 14 22 23 20 16 14 12 16 18 19 21 21 22 23
12 12 14 16 17 17 15 12 8 5 2 2 2 3 5 6 6 6 9 12 14 11 5 5 15 6 3 11 11 11 13 11 12 14 14 13 12 13 12 11 14 14 11 9 10 14 12 9 9 9 10 13 14 13 15 13 6 8 12 12 11 10 10 10 7 7 8 7 8 11 10 12 14 12 13 15 14 19 19 16 13 14 16 17 20 21 22 23
10 11 12 15 17 17 14 10 7 3 2 3 3 7 6 4 3 0 4 13 16 15 10 7 12 9 2 7 9 11 12 12 13 14 14 14 14 13 13 13 13 10 11 11 10 12 12 9 10 12 13 13 14 13 15 13 6 8 11 11 12 10 10 10 8 5 8 7 7 11 13 14 12 11 13 11 8 10 14 16 17 17 14 14 17 20 22 22
9 10 12 14 17 17 13 8 4 1 2 3 3 7 4 6 5 5 5 9 11 12 11 10 10 9 5 5 5 9 13 13 14 15 15 15 16 13 12 13 12 9 12 12 9 9 10 10 12 14 13 11 11 13 13 9 7 10 9 8 10 10 10 9 6 5 7 6 7 10 11 12 14 12 13 12 8 7 8 7 9 16 19 17 16 19 20 22
8 10 12 14 16 15 11 7 3 1 4 5 3 5 3 4 4 5 6 9 6 9 10 11 12 10 10 10 8 11 13 13 14 16 17 16 17 14 11 12 12 10 12 12 10 9 8 10 14 13 12 11 10 11 11 7 7 10 8 6 8 10 11 8 7 8 9 8 6 7 9 9 15 12 11 13 15 12 13 8 5 11 15 11 12 17 20 22
7 9 12 13 15 14 10 6 4 1 3 4 5 3 2 3 5 6 7 10 6 8 8 10 12 13 12 9 11 16 15 12 15 17 17 17 16 12 10 11 12 11 11 13 13 10 8 11 15 14 11 11 9 9 11 9 8 10 11 10 9 12 13 7 6 8 9 9 6 4 7 7 12 12 11 14 16 14 15 13 10 10 6 5 7 10 16 20
7 9 12 13 14 12 8 4 3 2 3 5 4 1 2 4 4 7 6 9 6 7 7 8 10 11 10 8 12 17 13 10 14 16 18 17 15 11 9 10 11 10 11 14 13 11 10 9 13 14 11 11 10 9 11 11 8 9 13 14 10 12 18 13 6 5 7 8 9 7 6 5 8 9 9 10 11 12 11 11 12 9 6 7 8 9 14 18
6 8 11 13 12 9 6 3 2 2 5 5 1 1 3 4 5 6 6 7 5 7 7 11 12 9 10 11 15 14 10 8 9 12 18 16 13 10 8 9 10 9 9 12 9 8 9 7 7 9 11 13 12 9 11 11 9 8 11 15 13 11 15 17 12 8 8 7 11 11 7 4 5 4 7 5 6 9 7 7 12 13 8 8 11 14 17 16
5 8 10 11 11 7 5 3 1 2 4 3 0 3 3 5 6 4 6 7 5 5 7 11 10 9 11 13 18 12 5 11 11 9 15 13 10 9 9 8 9 8 7 10 7 7 10 10 9 9 11 12 11 8 9 11 11 5 5 13 14 9 8 13 12 8 8 6 9 11 9 4 4 4 7 9 10 8 5 2 2 9 11 12 16 17 15 13
5 7 8 10 9 6 4 2 3 4 2 1 2 4 4 6 5 3 6 4 3 4 6 9 5 8 10 12 20 12 3 14 12 10 14 12 10 11 9 7 9 8 6 8 8 8 10 10 11 13 12 10 10 9 10 11 10 0 5 5 11 9 6 8 10 7 8 9 8 10 11 6 5 5 8 9 7 5 5 4 0 4 8 12 15 15 13 14
5 6 7 9 9 7 5 3 2 5 4 3 5 4 4 5 4 5 6 2 3 3 5 8 6 10 11 12 18 13 5 9 8 11 16 12 12 11 8 5 10 10 7 10 9 8 10 9 9 13 12 9 10 10 8 10 10 4 5 4 7 8 10 9 9 8 9 12 8 9 12 8 4 4 5 7 7 3 5 6 3 4 6 8 10 13 14 15
6 6 7 10 9 7 7 5 2 4 4 3 4 3 5 5 5 6 5 1 3 4 4 6 9 13 14 13 13 12 11 7 4 13 15 12 13 13 9 4 10 9 8 13 12 3 10 11 8 10 8 7 9 10 9 10 12 5 5 6 6 6 9 9 8 8 8 10 9 12 15 10 5 3 3 4 5 3 2 5 4 2 6 8 9 11 15 15
6 6 7 11 10 6 7 5 3 4 5 4 3 4 7 6 6 6 2 1 2 6 6 6 10 14 15 14 11 11 12 8 8 13 11 9 11 12 9 6 7 5 6 11 9 2 6 8 7 7 3 4 8 12 12 9 10 7 4 7 7 6 8 7 7 9 8 9 10 14 16 13 8 4 5 6 6 5 4 5 5 4 3 6 8 11 14 15
5 6 7 11 12 7 6 6 6 8 7 4 4 7 7 5 5 3 2 2 2 5 6 6 10 13 15 14 10 11 10 8 11 12 9 9 9 9 10 7 6 7 6 9 9 7 6 7 8 8 4 7 7 8 9 5 8 9 7 8 7 7 7 7 8 9 8 9 10 15 17 11 7 5 7 8 6 7 7 7 7 6 5 3 5 9 12 12
5 7 8 12 14 9 6 8 8 8 6 4 6 8 7 4 3 1 1 2 2 3 3 5 11 14 15 13 10 11 9 8 12 12 10 10 8 8 8 6 8 8 6 8 9 8 7 7 9 8 7 10 8 6 7 6 10 11 8 9 8 6 7 8 9 8 8 9 10 15 16 8 8 8 8 8 7 7 8 8 7 7 6 5 6 8 10 9
6 8 9 13 16 12 8 8 7 5 4 5 8 7 6 2 1 1 1 2 3 3 3 6 11 13 13 10 8 11 9 7 10 8 7 7 6 7 7 6 9 6 5 8 8 8 7 6 9 7 7 13 13 10 5 3 9 12 10 10 8 7 7 7 8 8 8 9 11 16 14 8 9 7 8 10 9 8 9 9 8 8 8 7 8 11 11 9
6 8 10 13 15 14 12 10 7 4 3 7 8 6 3 0 2 1 2 3 1 5 7 8 10 11 11 9 9 10 6 5 9 8 7 8 7 7 7 7 8 5 6 6 6 9 7 6 9 5 5 14 15 10 7 7 7 10 10 10 9 8 7 6 8 9 9 9 9 9 4 7 8 8 10 11 10 10 10 10 10 9 9 8 9 10 11 10
6 6 7 8 9 10 10 10 8 3 4 7 7 2 1 3 4 4 3 3 5 4 9 10 10 9 9 7 8 9 5 5 10 10 7 5 1 2 2 2 3 5 6 4 4 8 7 7 11 7 5 10 8 5 8 10 6 6 9 11 9 6 7 8 9 11 10 9 9 8 7 8 8 8 10 10 9 9 9 11 11 10 11 10 9 9 9 9
6 5 3 4 6 7 8 9 9 4 7 7 3 2 2 4 4 5 3 4 6 2 6 8 6 6 7 7 8 10 8 7 10 9 6 4 3 3 1 2 3 7 6 5 6 5 5 6 10 10 7 8 6 6 9 11 9 5 6 8 7 4 7 7 6 9 12 10 8 12 12 10 9 7 8 9 9 9 8 10 11 11 11 11 10 10 9 8
7 6 2 4 6 7 8 9 9 7 9 6 1 2 3 5 5 5 4 4 4 3 6 5 3 4 6 8 8 11 11 8 9 8 7 7 4 2 1 2 2 5 7 8 5 3 4 4 9 9 6 8 9 8 8 10 12 8 4 5 5 5 6 6 5 8 12 10 7 13 15 10 6 6 8 8 8 9 8 8 10 11 12 11 11 10 8 8
9 9 4 4 5 5 6 8 9 10 9 3 3 2 3 6 7 7 6 4 3 3 5 2 3 4 4 6 7 10 10 8 8 7 5 4 2 3 1 2 0 3 6 9 6 2 5 3 5 8 7 8 9 9 8 10 13 10 5 5 6 6 6 7 6 6 8 10 9 12 12 6 4 6 8 8 7 8 7 8 9 11 13 13 12 12 11 9
10 10 2 5 5 3 4 8 11 9 3 1 2 3 4 5 7 8 7 6 3 3 5 2 4 5 2 4 7 8 7 7 7 5 4 3 3 5 3 3 3 3 3 8 7 3 5 5 3 7 8 7 7 6 4 4 7 9 7 7 7 5 6 8 9 8 7 9 8 9 8 6 6 5 7 8 7 7 8 8 9 12 14 14 14 14 14 13
10 6 5 5 3 2 6 10 7 4 1 3 3 6 5 5 5 6 7 6 3 3 5 6 3 2 4 4 6 5 5 5 6 4 4 4 2 3 3 4 4 4 2 6 7 2 3 5 4 7 7 7 4 4 4 6 4 3 6 8 8 8 8 7 8 9 9 8 5 5 7 7 6 5 6 6 6 7 8 9 11 13 14 14 16 16 15 15
10 3 6 4 3 5 10 6 1 3 2 4 4 6 4 5 5 5 5 5 4 2 3 5 5 3 2 1 2 4 4 3 3 3 3 5 6 6 5 4 5 6 5 4 3 2 2 6 5 4 3 3 7 7 5 7 8 7 5 5 5 7 9 8 8 8 9 9 3 4 6 6 5 6 6 6 7 8 8 9 11 12 13 14 16 16 16 17
5 4 5 3 2 7 9 2 3 1 3 4 2 4 4 4 6 6 5 5 4 3 2 2 4 4 2 1 1 4 3 1 1 1 4 7 7 8 7 5 6 6 6 3 2 2 3 6 5 1 3 4 7 4 1 3 5 8 6 4 5 5 6 6 5 3 6 11 7 6 6 5 5 7 8 9 9 9 8 9 10 10 12 14 15 16 17 18
3 4 5 3 2 7 7 0 3 2 4 2 2 4 4 5 7 7 6 7 6 3 3 4 4 3 2 1 1 2 2 1 1 2 3 5 5 6 7 6 6 5 5 6 4 3 3 4 4 3 4 5 4 5 6 5 6 8 4 2 5 8 8 8 6 4 5 9 9 6 6 7 7 8 9 10 10 10 10 10 10 10 11 12 14 15 16 17
3 0 4 4 1 4 4 4 3 3 4 2 2 3 3 4 5 6 6 7 7 6 3 4 4 3 3 0 1 2 1 2 2 2 2 5 6 5 6 7 7 7 8 11 11 6 3 2 2 3 4 5 4 4 4 5 8 7 3 1 3 8 9 7 6 6 6 7 8 2 8 10 10 11 10 10 9 9 10 11 11 12 12 12 13 13 14 16
6 1 2 3 3 4 6 5 4 2 2 1 2 2 2 3 4 3 5 4 5 6 5 4 3 1 1 1 3 3 1 1 3 4 4 5 5 5 5 5 7 8 8 10 11 7 3 2 1 2 3 2 2 3 4 2 6 8 5 3 3 5 6 7 8 7 6 6 2 6 15 16 14 13 11 10 9 8 9 10 11 11 12 12 13 13 14 15
5 3 2 3 3 4 5 4 4 3 2 1 1 1 2 2 3 2 3 3 3 3 3 4 3 2 1 1 2 3 1 2 4 5 5 5 5 6 4 3 6 6 6 6 6 5 4 3 2 1 2 4 4 5 5 4 0 3 3 3 2 2 4 9 9 4 6 6 4 11 17 18 16 15 13 10 9 7 8 10 10 10 11 12 12 13 14 15
3 3 3 3 3 2 4 5 5 4 3 2 1 1 2 3 2 3 3 2 2 2 3 2 2 3 3 1 1 2 2 3 5 4 4 4 5 6 5 3 5 2 4 3 3 4 5 3 3 3 2 1 3 3 3 4 2 1 2 1 1 3 5 8 6 4 7 5 6 13 16 17 16 15 13 11 10 8 9 9 9 10 11 11 12 13 14 15
4 4 4 1 3 4 4 3 2 3 5 3 1 2 3 3 4 4 3 2 1 2 5 1 3 3 3 2 3 1 3 0 3 4 1 2 3 4 4 3 3 1 2 2 3 3 5 2 2 3 4 1 2 2 2 3 3 3 4 3 3 4 4 5 4 3 5 2 9 15 16 15 14 13 12 11 11 11 9 9 9 9 10 10 11 13 14 15
7 5 3 2 4 5 3 2 0 2 4 0 0 3 4 4 5 5 4 6 3 2 2 2 4 3 2 2 2 3 5 5 2 4 1 1 1 2 1 1 2 1 1 2 1 1 3 1 2 4 6 4 3 3 2 3 5 6 6 5 6 6 4 4 3 2 2 4 12 17 17 13 11 13 13 10 11 11 10 9 8 8 8 9 10 12 13 14
8 5 4 4 3 2 2 2 0 1 3 2 1 3 3 3 4 2 3 7 7 4 3 3 3 2 2 4 4 6 6 6 6 5 3 2 2 2 1 2 2 1 0 1 0 1 3 2 2 4 7 5 6 6 5 4 5 8 8 7 8 8 6 5 3 1 3 7 14 16 13 10 10 13 13 10 10 10 10 9 8 7 6 6 8 10 12 13
7 3 5 7 1 0 2 1 0 1 3 5 4 3 2 3 3 2 1 4 4 5 5 4 2 1 2 4 4 5 5 5 5 5 3 3 3 3 2 2 4 4 2 1 1 2 4 3 2 5 7 5 7 7 5 4 7 9 8 10 11 8 6 4 3 1 1 6 10 10 8 9 12 13 12 11 10 8 7 6 7 7 6 5 6 8 10 11
Wind_Direction
347 340 332 329 331 330 329 323 318 320 318 319 320 322 325 325 326 328 332 332 327 324 323 323 314 301 298 303 301 299 302 301 299 287 274 257 233 233 229 219 213 197 182 169 172 183 184 193 197 199 204 211 228 238 241 244 252 257 283 321 311 298 50 69 97 103 124 134 140 139 132 147 137 134 142 132 130 129 125 127 123 122 127 130 134 137 139 143
355 345 336 330 328 328 329 324 322 319 318 319 318 319 320 320 322 323 328 328 326 326 325 324 316 303 301 303 304 305 304 305 292 283 276 255 244 236 226 216 205 194 179 170 181 186 183 194 192 196 205 211 224 227 234 234 241 239 244 326 311 43 68 60 59 98 125 137 142 136 124 150 151 145 152 140 136 137 132 131 126 123 125 129 134 139 142 144
0 350 342 333 327 325 322 322 322 320 320 319 318 318 316 317 317 317 323 325 325 324 325 324 315 306 303 305 306 306 306 303 287 274 262 250 247 236 223 211 200 189 177 175 187 188 189 196 189 199 207 216 224 218 229 220 244 269 315 264 43 22 66 73 55 89 125 143 141 134 135 153 149 144 147 148 148 146 149 142 133 130 131 135 139 142 145 148
359 354 349 341 332 324 320 318 317 318 319 319 319 316 314 315 313 314 317 321 324 319 323 321 314 311 304 307 303 309 314 295 271 214 218 259 253 234 214 201 193 180 171 178 192 193 200 201 195 207 215 225 218 212 237 200 197 291 342 268 321 343 18 70 74 80 113 133 126 136 143 144 151 148 146 173 162 145 160 150 141 139 139 142 144 146 148 151
353 352 349 345 338 330 323 317 314 314 316 317 316 313 313 313 311 312 312 317 319 314 316 311 313 313 304 308 303 308 308 286 153 163 249 273 255 224 200 189 182 169 165 183 197 199 206 203 202 214 225 235 213 205 231 198 202 240 179 229 266 341 359 34 72 82 106 122 124 146 142 147 169 146 126 148 148 152 167 150 144 145 145 148 147 148 150 153
347 345 343 341 336 330 325 319 316 314 315 315 312 310 310 311 311 311 312 314 313 309 307 303 311 309 304 303 303 306 274 285 75 230 268 272 239 201 181 178 172 163 169 193 197 200 207 203 204 213 227 239 219 213 216 191 216 241 177 215 252 336 355 14 60 84 108 121 128 145 145 162 171 131 119 124 133 163 163 144 144 145 147 149 148 150 152 154
343 340 337 334 329 325 321 316 314 313 315 313 309 308 307 308 310 311 312 311 307 304 298 298 301 295 304 295 301 289 251 262 46 299 283 266 206 170 165 170 166 163 179 203 197 199 203 199 207 212 225 238 222 222 213 185 207 230 223 218 229 296 282 12 62 99 106 121 126 134 152 168 165 128 126 139 149 149 142 137 142 145 147 148 150 152 152 156
341 337 333 328 323 318 314 311 310 309 310 310 307 305 305 306 309 312 311 307 304 299 292 293 292 278 285 281 285 268 241 222 64 3 343 164 166 155 158 165 166 166 189 205 197 198 201 200 210 213 222 239 227 212 198 199 214 220 234 221 211 259 267 317 323 117 122 129 134 140 155 159 147 138 139 148 145 133 131 136 142 146 148 150 154 154 153 157
343 339 333 327 321 315 310 306 304 304 305 306 304 303 304 305 308 313 306 302 301 297 291 285 283 262 250 242 269 265 202 113 80 350 70 137 157 156 159 166 170 176 199 202 198 200 203 206 210 216 237 256 245 215 200 214 222 219 235 242 243 265 279 266 247 152 140 130 142 149 148 153 145 138 141 140 133 131 134 138 143 147 150 153 156 155 155 159
346 342 334 328 323 317 310 304 300 301 302 303 303 302 303 304 309 312 303 298 297 293 289 280 279 253 227 219 267 258 112 109 186 98 96 124 145 153 160 173 178 188 200 197 202 205 207 213 211 224 260 273 256 227 217 224 233 227 244 264 261 267 260 243 236 151 148 137 152 163 142 141 122 104 117 133 131 137 138 139 145 149 152 155 157 156 158 161
348 343 335 330 324 318 310 303 299 298 300 302 303 303 302 303 308 308 296 291 291 288 284 278 272 245 208 240 266 253 104 124 144 118 127 131 142 154 164 181 183 192 198 197 205 207 211 220 220 228 248 267 250 228 227 232 262 265 254 262 246 248 238 227 228 168 155 124 105 84 135 122 98 91 165 146 140 144 141 143 148 151 154 155 157 157 159 162
348 343 337 331 325 317 308 302 300 299 300 300 301 304 301 302 307 303 291 285 283 282 281 277 258 219 202 258 257 231 101 149 146 137 149 142 151 161 170 183 184 192 197 201 206 207 217 226 233 230 228 293 250 222 232 231 242 249 251 257 227 225 229 211 215 168 131 112 99 86 134 123 105 138 192 150 148 153 148 148 151 153 156 157 158 158 161 163
345 342 338 335 329 320 313 308 304 301 300 300 302 302 299 303 304 296 283 273 272 277 278 272 237 180 235 260 232 158 127 160 155 151 156 154 160 163 171 178 182 195 202 206 207 209 221 228 237 237 244 270 250 280 287 226 231 240 241 253 231 216 214 187 203 150 113 128 147 148 168 125 94 325 214 176 164 161 155 154 156 155 157 160 160 159 163 164
343 340 339 339 334 327 322 319 313 306 301 301 303 299 300 306 305 296 273 256 256 266 268 237 193 169 244 256 162 174 178 159 165 165 164 168 162 162 168 173 183 196 203 209 212 212 220 230 239 247 246 240 262 348 268 223 221 234 232 233 234 229 194 170 189 157 125 141 157 202 241 110 85 295 224 199 173 167 164 159 161 159 159 162 161 163 166 166
342 341 341 339 336 332 328 327 323 311 302 302 304 300 303 311 315 298 254 239 241 249 229 158 170 186 245 236 183 206 185 165 176 174 172 175 166 169 169 174 185 186 193 200 207 208 211 228 234 242 237 229 258 291 227 222 210 222 229 218 222 230 180 169 183 152 132 141 147 236 299 109 172 202 203 201 176 178 176 163 164 162 161 163 163 166 167 167
343 341 340 339 338 335 332 333 331 317 305 303 301 298 305 321 333 297 245 226 236 244 153 49 210 224 258 238 161 184 181 180 185 176 179 181 177 177 167 170 179 176 188 191 198 204 203 222 226 231 233 221 233 240 218 216 205 209 223 222 211 215 194 166 179 147 134 145 142 142 86 124 175 180 192 198 189 196 182 164 167 164 163 165 165 168 168 168
345 342 343 345 345 341 338 338 334 319 306 301 295 299 313 327 339 312 227 212 234 248 201 303 267 236 259 287 162 182 184 183 178 176 180 186 186 174 166 171 174 173 180 184 197 200 196 212 219 227 235 226 215 223 225 213 207 200 208 226 207 211 213 158 175 157 146 162 148 130 144 140 169 191 207 208 204 208 180 160 167 165 165 167 168 172 169 168
347 346 349 351 349 347 342 341 336 319 305 297 280 290 304 311 315 202 178 204 225 236 248 240 222 242 241 209 197 192 184 173 170 176 177 183 187 171 173 177 169 169 175 180 193 194 194 203 211 220 222 224 218 215 222 213 208 200 197 221 209 204 216 191 179 161 167 175 148 156 174 134 171 208 217 215 203 194 168 162 166 163 168 169 171 174 171 170
350 350 355 352 350 348 342 341 336 316 298 273 249 288 285 266 252 215 197 201 200 208 263 197 195 256 1 177 184 176 169 164 169 175 175 178 179 172 177 178 170 173 178 178 185 191 194 199 207 222 213 212 217 213 224 226 219 217 208 212 217 206 210 210 181 156 189 192 157 175 161 139 188 202 218 217 189 164 162 170 162 159 171 173 173 175 172 172
350 354 357 353 353 348 342 341 331 316 271 232 216 249 259 244 228 200 192 207 218 239 302 186 200 240 69 149 153 144 151 161 173 175 175 176 173 177 179 177 177 183 191 181 174 185 196 207 208 217 216 210 215 218 232 238 239 248 227 206 213 217 206 192 154 152 200 203 173 171 151 160 185 186 206 218 180 157 161 168 164 164 177 175 174 175 173 174
348 355 358 358 357 350 344 340 328 313 231 209 203 237 269 313 294 62 194 218 225 240 261 228 219 247 221 146 143 155 164 172 182 177 174 174 175 182 179 183 188 189 200 188 168 181 197 221 216 214 223 216 214 220 235 242 233 248 242 208 205 215 215 189 142 159 205 216 195 168 163 170 174 177 184 195 199 169 162 169 161 158 177 184 176 174 174 174
343 351 356 357 357 354 350 344 339 300 198 166 194 242 290 9 352 349 314 259 224 217 238 227 227 246 224 190 181 183 181 180 185 177 172 177 186 190 178 190 207 191 193 191 173 181 199 226 223 212 224 227 218 217 228 240 223 230 240 219 210 212 216 194 155 195 208 217 206 180 185 169 162 177 162 162 198 175 164 181 151 155 179 190 179 170 173 176
338 344 351 353 354 358 358 359 3 221 171 158 222 262 304 5 338 321 302 283 232 194 220 218 214 216 200 207 206 194 198 191 181 175 173 184 197 201 189 196 217 200 188 193 189 192 198 219 225 214 215 223 218 211 214 220 218 227 230 220 214 211 217 196 173 203 212 232 220 182 210 175 154 163 146 169 193 165 157 171 170 180 183 183 168 163 175 179
333 338 347 349 350 354 358 16 31 357 177 205 260 284 324 327 329 323 291 277 250 179 196 206 204 206 197 196 188 193 209 197 180 175 175 192 199 201 208 206 218 214 195 196 200 211 213 205 216 214 204 211 209 200 210 216 216 220 222 229 216 206 224 220 171 188 203 233 240 179 215 186 153 159 156 181 186 156 154 162 173 188 178 167 166 169 179 177
330 337 346 345 346 350 351 13 36 355 218 224 250 251 315 312 318 322 294 269 237 160 169 188 194 201 184 170 180 197 218 202 187 178 174 198 201 190 215 216 221 220 193 195 204 218 223 205 208 203 185 203 209 199 210 219 223 218 219 235 235 213 218 210 176 202 212 212 207 205 229 193 165 163 151 171 173 152 156 161 162 167 169 171 169 192 191 174
332 342 347 346 350 350 337 335 16 298 230 213 188 248 300 310 307 311 290 261 201 153 159 174 182 190 180 180 180 196 226 197 173 167 172 201 207 198 221 206 217 234 196 194 210 225 219 191 194 193 180 201 215 210 209 214 231 226 203 215 236 246 226 202 185 211 235 213 189 207 236 195 164 133 109 109 113 125 142 164 163 159 166 171 160 179 188 177
332 343 347 351 1 4 344 331 328 264 234 194 193 283 297 294 301 309 270 249 187 154 149 157 174 187 187 185 177 190 213 155 150 167 178 199 203 212 240 199 201 241 214 194 201 219 210 176 170 197 197 203 216 215 197 206 234 239 162 190 214 252 244 207 201 213 237 218 172 197 228 202 164 134 101 76 63 86 100 21 178 155 165 180 167 167 179 181
327 334 346 353 1 9 12 353 291 278 292 4 278 275 291 284 292 284 257 245 139 143 144 141 153 175 176 179 185 201 131 141 167 178 176 198 200 204 235 216 209 223 208 206 193 187 201 180 173 200 211 206 213 214 186 200 230 285 67 195 208 219 223 217 223 226 240 234 184 191 214 198 171 146 112 104 91 93 120 103 11 164 172 190 171 160 177 184
323 320 337 345 348 353 358 2 319 308 320 307 268 266 280 277 276 253 253 263 139 168 147 135 148 174 177 180 194 208 184 176 196 159 163 199 208 220 254 240 226 212 186 225 219 169 180 189 190 204 215 210 206 211 187 199 221 136 92 231 217 212 215 221 233 224 234 240 216 201 207 192 160 145 129 141 142 136 142 130 138 173 173 192 175 164 180 185
313 307 319 337 348 342 316 293 265 311 314 272 265 267 260 254 245 235 225 179 155 155 143 151 166 179 182 179 189 202 196 195 149 147 168 191 196 226 258 247 241 220 177 226 245 195 169 180 200 210 220 221 208 210 192 200 228 188 130 207 200 199 212 214 230 229 230 230 222 223 209 170 133 169 161 136 123 107 100 95 86 137 146 163 180 178 185 187
302 302 317 336 341 320 295 282 242 287 293 272 276 256 243 231 236 245 206 118 130 143 162 174 166 174 183 183 181 191 191 166 149 167 179 179 183 212 218 206 243 221 176 214 229 212 164 170 203 204 204 248 225 212 191 186 231 220 174 209 189 176 203 203 213 221 228 221 210 224 215 176 157 175 129 102 91 76 55 64 62 34 83 144 173 182 187 189
299 306 324 340 341 327 305 300 275 275 275 264 261 245 237 223 227 247 140 176 201 164 174 171 162 173 185 187 176 180 187 162 169 186 181 182 189 197 199 197 199 193 200 202 181 174 187 187 196 182 184 237 230 203 184 182 235 220 202 216 195 174 189 194 206 208 220 230 207 212 221 201 154 126 108 102 86 77 67 53 48 42 51 103 145 169 184 185
314 321 331 346 349 344 311 300 283 269 264 254 254 246 246 241 223 272 178 173 153 140 169 167 170 181 186 186 173 173 180 165 178 194 191 197 200 179 192 227 220 210 212 197 176 171 180 175 176 174 189 213 215 196 181 190 215 213 211 215 202 187 188 192 205 203 211 230 216 208 213 189 127 120 114 104 78 64 71 65 53 56 67 72 91 135 162 172
324 335 348 358 359 354 333 317 300 270 245 238 248 245 250 253 147 285 308 74 97 137 180 176 171 180 187 184 171 171 175 169 180 193 185 196 213 180 181 228 231 240 239 209 190 180 187 170 171 182 177 185 206 227 241 247 210 206 219 222 214 208 199 198 203 198 205 213 211 212 206 158 129 132 115 108 94 72 66 66 59 59 72 79 83 104 121 139
334 355 7 8 0 351 339 329 315 284 226 233 248 250 256 352 79 345 22 43 161 159 165 185 177 177 182 176 172 181 197 185 178 192 194 197 210 187 179 194 200 242 273 238 193 185 192 146 140 128 131 174 198 225 255 271 224 197 213 228 228 221 218 223 212 202 206 206 199 202 177 107 123 131 119 114 102 88 75 65 60 57 62 72 84 96 108 118
334 341 359 9 355 340 336 328 323 307 233 250 264 273 53 51 25 359 27 324 284 177 164 187 190 184 175 168 177 186 219 212 184 193 199 191 150 107 147 177 196 271 289 286 245 204 183 125 133 140 152 179 201 219 224 244 244 192 204 219 221 232 251 244 218 207 207 208 191 157 110 108 133 131 120 119 104 93 81 66 60 54 54 62 75 86 94 104
306 284 308 11 1 356 358 340 331 306 253 262 290 3 38 57 18 357 14 304 293 229 187 188 187 196 179 173 182 179 187 196 190 196 187 159 89 64 185 219 257 286 300 309 289 226 182 132 149 174 179 175 205 233 221 236 255 223 203 222 218 232 274 271 240 215 204 206 187 152 144 154 161 146 132 130 112 93 78 68 62 54 55 58 59 69 78 80
293 262 236 38 13 359 360 342 326 288 262 262 119 39 17 54 34 13 12 311 283 243 242 211 180 235 204 184 178 172 179 185 187 193 181 175 156 81 258 220 219 293 302 292 282 218 209 152 145 177 185 164 191 219 215 227 249 264 307 294 250 219 232 245 254 227 202 205 190 150 152 168 169 147 141 133 106 89 79 70 64 55 55 56 52 56 65 70
274 252 215 49 6 333 343 332 302 271 264 266 127 115 48 61 47 31 16 324 279 273 286 234 188 254 231 190 175 169 182 189 188 190 178 181 153 97 334 308 335 313 298 281 287 269 241 229 148 175 173 159 185 204 203 206 222 243 281 270 242 236 225 213 224 233 212 213 197 155 152 148 106 116 126 119 97 88 85 72 64 58 55 55 53 50 51 56
272 256 156 48 343 317 321 297 278 264 251 63 66 67 54 51 47 40 19 343 313 313 332 333 215 231 199 176 174 170 193 198 188 189 161 146 114 100 72 3 341 334 306 269 278 282 238 244 171 157 163 173 186 193 214 217 202 213 229 220 209 227 238 222 220 229 229 225 205 172 161 121 94 115 124 121 108 94 92 85 71 63 58 55 55 51 47 48
276 262 87 48 319 281 281 275 279 292 91 90 54 58 43 355 12 39 25 3 353 343 340 333 299 193 152 175 171 167 206 195 173 179 158 144 91 79 73 12 331 322 305 240 238 223 233 246 194 156 175 196 156 91 4 347 340 243 225 220 207 207 222 226 224 226 233 242 231 179 156 123 119 142 131 126 118 100 95 91 81 69 62 58 56 54 51 49
270 286 57 28 296 264 272 269 34 354 32 80 56 61 43 331 352 22 14 360 0 10 344 340 357 27 137 177 163 176 202 185 167 185 133 89 41 44 55 8 323 301 292 244 190 76 321 266 226 156 145 141 98 67 3 340 333 313 276 261 246 216 214 218 219 223 233 243 233 106 116 117 127 134 124 120 109 101 97 91 88 77 67 62 58 55 54 52
295 12 49 40 289 277 278 260 107 26 56 83 69 57 41 4 15 22 15 1 353 19 30 33 21 357 352 25 207 184 169 75 74 96 100 90 57 44 43 7 324 303 301 291 114 63 303 254 239 113 83 94 92 80 324 320 297 273 257 266 279 261 247 248 255 270 250 237 210 142 126 130 136 130 127 130 122 114 104 88 86 81 73 70 62 55 54 52
12 42 54 74 288 283 283 303 110 106 89 110 141 96 70 34 21 18 31 26 9 18 49 53 35 16 41 20 275 153 134 231 129 95 90 102 81 47 40 18 346 346 1 4 16 3 287 242 230 208 184 177 162 179 194 196 225 241 232 225 272 281 285 287 287 287 259 253 248 206 154 139 149 148 139 139 131 117 108 95 87 81 75 73 70 63 58 54
294 125 78 78 17 314 348 34 48 96 109 106 99 97 101 81 42 12 25 35 17 9 35 53 28 33 81 135 216 132 191 250 142 118 100 101 100 73 52 36 16 28 34 4 343 324 288 267 250 236 214 202 190 183 189 194 202 213 212 185 255 261 272 279 268 246 236 264 292 273 134 134 146 151 142 139 130 114 108 102 92 85 78 72 71 68 62 57
297 274 99 88 76 63 64 52 28 61 105 106 73 42 29 87 90 32 0 21 33 19 25 45 10 353 126 197 178 145 179 193 153 172 154 125 120 101 67 56 50 41 24 354 334 312 279 267 303 321 338 4 28 32 6 292 197 181 174 185 228 249 262 258 248 251 246 245 278 104 126 136 144 147 142 137 132 123 116 109 97 89 84 77 73 72 69 62
326 4 14 28 64 88 90 66 30 42 46 336 12 16 9 53 100 84 7 3 32 14 13 30 346 303 165 210 177 132 103 125 148 164 148 128 120 115 101 78 73 41 350 331 328 314 272 215 184 249 344 14 12 25 11 333 306 125 140 174 217 251 254 243 237 272 298 261 184 132 137 141 142 143 141 135 131 125 116 112 104 95 87 79 74 72 73 67
7 41 37 358 327 14 59 36 24 56 66 37 25 322 13 52 46 53 56 39 27 319 315 61 21 353 34 6 257 136 122 134 136 131 129 136 143 146 149 114 89 33 310 309 357 330 284 232 171 225 253 11 356 5 358 329 349 23 281 266 251 244 242 246 247 288 300 272 164 146 144 139 139 141 139 137 134 124 113 108 106 101 91 80 71 67 66 63
30 65 72 23 341 31 60 42 11 69 67 41 53 31 16 48 60 47 29 6 80 9 330 51 99 27 39 4 313 108 97 42 141 129 125 157 165 182 176 134 127 161 300 329 31 343 289 280 98 276 272 256 307 328 318 292 283 251 247 248 256 256 245 249 258 271 275 224 139 142 139 130 130 133 133 134 130 125 124 119 113 107 98 83 67 59 57 56
9 16 22 41 75 60 56 82 235 122 104 104 163 59 17 20 55 61 26 354 19 81 349 41 90 44 42 52 349 92 71 2 34 110 87 312 198 231 242 84 109 116 13 317 24 8 278 307 77 286 269 222 220 263 244 252 264 249 235 227 233 237 231 238 237 204 213 164 140 139 134 124 121 126 132 139 138 137 137 128 115 102 97 90 72 57 51 49
4 1 332 332 58 36 355 67 284 241 108 83 39 61 32 38 50 51 53 22 15 44 34 31 81 50 59 85 67 72 64 19 29 63 41 3 14 356 21 20 344 340 354 264 266 251 257 240 157 245 255 221 193 214 218 219 245 244 233 224 222 220 218 217 203 194 206 166 147 140 136 133 133 135 140 147 151 148 139 128 117 98 85 81 77 66 52 44
0 7 319 311 330 221 291 103 107 322 66 60 52 51 19 58 68 323 1 60 36 37 30 5 334 254 127 106 74 41 34 20 25 28 3 355 357 350 10 348 314 310 316 311 241 241 257 264 208 219 248 226 176 191 208 202 229 240 225 211 212 214 214 196 152 101 179 172 164 156 145 138 141 149 156 156 152 140 114 105 105 98 90 77 70 65 53 44
Height
1515 1515 1514 1513 1513 1512 1512 1511 1511 1510 1508 1507 1506 1506 1505 1505 1504 1504 1503 1502 1502 1501 1500 1500 1499 1498 1498 1497 1497 1497 1496 1496 1495 1495 1494 1494 1494 1494 1494 1494 1495 1497 1498 1500 1502 1504 1504 1504 1504 1504 1504 1503 1502 1501 1500 1501 1500 1499 1501 1507 1510 1505 1500 1495 1494 1499 1499 1498 1498 1499 1500 1500 1502 1504 1505 1506 1506 1506 1506 1507 1508 1509 1510 1513 1517 1521 1525 1528
1515 1514 1514 1513 1512 1512 1511 1511 1510 1510 1509 1508 1506 1505 1505 1504 1504 1503 1502 1502 1501 1501 1500 1499 1498 1498 1497 1497 1496 1496 1495 1495 1494 1493 1492 1492 1492 1493 1493 1493 1494 1496 1498 1500 1502 1503 1503 1503 1503 1504 1502 1501 1500 1499 1499 1499 1498 1496 1501 1511 1509 1497 1490 1486 1486 1491 1494 1497 1496 1498 1501 1502 1502 1502 1504 1507 1507 1507 1507 1508 1509 1510 1512 1515 1519 1523 1526 1529
1515 1514 1513 1513 1512 1511 1510 1510 1509 1509 1508 1508 1506 1505 1504 1504 1503 1502 1502 1501 1501 1500 1499 1499 1498 1497 1497 1497 1496 1495 1495 1494 1493 1491 1490 1491 1491 1491 1492 1492 1494 1496 1497 1500 1502 1503 1503 1503 1503 1503 1501 1499 1498 1498 1498 1497 1498 1496 1500 1510 1504 1489 1484 1483 1485 1488 1491 1494 1493 1496 1500 1501 1502 1501 1503 1506 1506 1506 1507 1507 1508 1510 1513 1517 1520 1523 1527 1530
1515 1514 1513 1512 1512 1511 1510 1509 1509 1508 1507 1507 1506 1505 1504 1503 1502 1502 1501 1501 1500 1500 1499 1498 1498 1497 1497 1497 1496 1495 1494 1493 1491 1489 1489 1490 1490 1490 1491 1492 1493 1496 1498 1501 1503 1503 1503 1503 1503 1502 1499 1496 1494 1497 1496 1495 1500 1499 1499 1503 1495 1485 1485 1484 1484 1488 1489 1490 1492 1495 1498 1500 1501 1502 1503 1504 1506 1508 1506 1506 1508 1511 1514 1517 1520 1523 1527 1530
1515 1514 1513 1512 1511 1510 1510 1509 1508 1507 1507 1506 1505 1504 1504 1503 1502 1501 1501 1500 1500 1499 1499 1498 1497 1497 1497 1496 1496 1495 1495 1493 1488 1488 1489 1489 1489 1489 1490 1491 1494 1496 1498 1502 1503 1503 1503 1503 1503 1501 1498 1494 1491 1494 1494 1493 1497 1498 1497 1497 1489 1485 1487 1484 1482 1486 1488 1489 1493 1494 1496 1500 1500 1502 1505 1503 1506 1508 1505 1505 1509 1512 1515 1517 1520 1523 1527 1530
1515 1513 1513 1512 1511 1510 1509 1508 1507 1507 1506 1505 1504 1504 1503 1502 1501 1501 1500 1500 1499 1499 1498 1497 1497 1496 1496 1496 1496 1495 1495 1491 1487 1488 1489 1488 1488 1488 1490 1492 1494 1496 1499 1502 1503 1503 1503 1502 1502 1500 1497 1492 1489 1490 1490 1491 1494 1497 1498 1493 1487 1485 1485 1483 1482 1485 1486 1487 1492 1493 1496 1498 1496 1501 1505 1503 1504 1505 1504 1506 1509 1513 1516 1518 1521 1524 1527 1530
1514 1513 1512 1511 1510 1509 1508 1507 1506 1506 1505 1505 1504 1503 1502 1501 1501 1500 1499 1499 1498 1498 1497 1497 1497 1496 1496 1496 1496 1495 1494 1490 1487 1488 1488 1488 1488 1488 1490 1492 1494 1496 1498 1502 1502 1502 1502 1501 1501 1497 1496 1492 1488 1487 1487 1489 1491 1496 1497 1488 1485 1485 1483 1483 1482 1483 1485 1486 1490 1492 1495 1495 1495 1500 1504 1502 1502 1503 1504 1506 1510 1514 1517 1520 1522 1525 1528 1531
1514 1512 1511 1510 1509 1508 1507 1506 1505 1505 1504 1504 1503 1502 1501 1500 1500 1499 1499 1498 1498 1498 1497 1497 1496 1496 1496 1495 1496 1494 1492 1490 1488 1488 1488 1488 1488 1489 1491 1493 1495 1496 1498 1501 1501 1502 1501 1500 1500 1497 1495 1491 1488 1487 1487 1490 1489 1490 1491 1485 1484 1484 1481 1482 1481 1481 1483 1485 1489 1491 1491 1492 1493 1498 1502 1502 1501 1502 1504 1507 1511 1514 1517 1521 1523 1526 1529 1531
1513 1512 1511 1509 1508 1507 1506 1505 1504 1503 1503 1502 1502 1501 1500 1500 1499 1499 1498 1497 1497 1497 1496 1496 1496 1496 1495 1495 1496 1493 1489 1489 1488 1489 1489 1488 1489 1490 1492 1493 1495 1497 1499 1501 1500 1502 1501 1499 1499 1496 1493 1490 1487 1486 1486 1491 1490 1486 1485 1483 1483 1482 1480 1481 1479 1479 1481 1483 1487 1488 1488 1490 1491 1497 1503 1502 1502 1503 1505 1508 1511 1515 1518 1521 1524 1526 1529 1531
1513 1511 1510 1508 1507 1506 1505 1504 1503 1502 1501 1501 1501 1500 1500 1499 1498 1498 1497 1497 1497 1496 1496 1496 1495 1495 1495 1495 1495 1491 1488 1490 1489 1490 1490 1489 1490 1491 1493 1495 1496 1498 1500 1500 1501 1501 1500 1499 1498 1496 1495 1491 1488 1487 1486 1489 1488 1484 1483 1483 1483 1481 1480 1479 1477 1477 1480 1483 1486 1487 1488 1490 1490 1500 1508 1502 1502 1505 1505 1509 1512 1515 1518 1521 1524 1526 1529 1532
1512 1511 1509 1507 1506 1505 1504 1502 1501 1501 1500 1500 1499 1499 1499 1498 1497 1497 1496 1496 1496 1496 1495 1496 1495 1495 1495 1495 1494 1489 1489 1492 1491 1491 1492 1491 1492 1493 1495 1497 1497 1499 1500 1500 1501 1500 1500 1499 1498 1498 1497 1493 1489 1488 1486 1486 1486 1485 1485 1485 1482 1480 1479 1477 1477 1477 1479 1484 1489 1490 1490 1492 1495 1503 1508 1502 1503 1506 1506 1509 1512 1515 1518 1521 1524 1526 1530 1532
1511 1510 1508 1507 1505 1503 1502 1501 1500 1500 1499 1499 1498 1498 1497 1497 1496 1496 1496 1495 1495 1495 1495 1495 1495 1495 1495 1495 1493 1490 1490 1493 1492 1493 1494 1493 1494 1495 1496 1498 1498 1499 1500 1500 1500 1500 1501 1500 1500 1499 1496 1494 1490 1488 1487 1485 1486 1486 1486 1487 1482 1479 1478 1476 1474 1475 1482 1489 1491 1494 1496 1500 1504 1505 1505 1503 1505 1506 1506 1509 1511 1515 1518 1520 1524 1526 1530 1532
1510 1509 1507 1506 1504 1502 1501 1500 1499 1499 1498 1498 1497 1497 1496 1496 1496 1495 1495 1495 1494 1494 1495 1495 1495 1495 1495 1494 1491 1490 1492 1493 1493 1494 1495 1495 1496 1496 1497 1498 1499 1500 1500 1500 1500 1501 1501 1501 1501 1498 1496 1495 1490 1488 1489 1485 1488 1488 1485 1486 1483 1484 1483 1476 1473 1476 1486 1493 1490 1495 1504 1510 1508 1505 1506 1505 1506 1506 1507 1509 1510 1514 1517 1520 1523 1526 1529 1531
1509 1508 1506 1505 1503 1502 1500 1499 1499 1497 1497 1496 1496 1496 1495 1495 1495 1494 1494 1494 1494 1494 1494 1495 1494 1495 1495 1493 1490 1490 1492 1493 1494 1494 1495 1496 1496 1496 1497 1498 1499 1500 1500 1500 1501 1501 1501 1501 1501 1499 1496 1495 1490 1490 1491 1486 1488 1488 1485 1486 1485 1490 1488 1475 1472 1478 1489 1495 1491 1494 1506 1515 1510 1505 1507 1506 1506 1507 1507 1508 1510 1512 1515 1519 1522 1525 1528 1530
1508 1506 1505 1504 1502 1501 1499 1498 1498 1496 1496 1495 1495 1495 1495 1495 1494 1494 1494 1494 1494 1494 1494 1495 1494 1495 1494 1491 1489 1489 1491 1492 1493 1494 1495 1496 1496 1497 1497 1498 1499 1499 1500 1500 1501 1501 1501 1502 1501 1499 1496 1494 1492 1493 1492 1488 1486 1486 1491 1492 1486 1489 1487 1477 1472 1477 1490 1495 1493 1497 1507 1517 1512 1506 1509 1507 1507 1508 1507 1507 1508 1511 1514 1518 1520 1523 1527 1530
1508 1506 1505 1503 1501 1500 1498 1497 1497 1496 1495 1494 1494 1494 1494 1494 1494 1493 1493 1493 1494 1494 1494 1495 1494 1495 1492 1488 1487 1489 1491 1492 1492 1493 1495 1496 1496 1497 1497 1498 1498 1499 1500 1500 1501 1501 1502 1501 1500 1497 1494 1493 1493 1494 1493 1491 1489 1485 1490 1494 1489 1489 1488 1483 1476 1475 1488 1494 1496 1502 1508 1515 1510 1506 1509 1507 1508 1508 1505 1505 1507 1510 1513 1516 1520 1521 1525 1528
1507 1506 1504 1502 1501 1499 1498 1497 1496 1495 1494 1494 1494 1494 1494 1494 1493 1493 1493 1493 1494 1493 1494 1494 1495 1495 1491 1487 1488 1489 1490 1490 1491 1493 1494 1495 1496 1496 1497 1498 1498 1499 1500 1501 1502 1501 1501 1501 1499 1497 1492 1490 1489 1492 1495 1497 1493 1486 1488 1490 1488 1488 1488 1489 1483 1476 1483 1491 1498 1503 1504 1511 1509 1506 1509 1507 1509 1508 1502 1503 1506 1508 1512 1514 1518 1520 1522 1526
1507 1505 1503 1502 1500 1499 1497 1496 1495 1494 1494 1493 1493 1493 1494 1493 1493 1493 1493 1493 1493 1494 1495 1494 1495 1495 1488 1485 1486 1487 1488 1490 1491 1492 1493 1495 1496 1496 1497 1497 1497 1499 1499 1500 1501 1500 1501 1498 1496 1495 1492 1490 1488 1490 1496 1493 1487 1487 1490 1490 1488 1488 1488 1490 1487 1479 1479 1486 1497 1504 1504 1510 1510 1508 1511 1508 1510 1509 1501 1502 1506 1508 1511 1514 1516 1518 1521 1524
1507 1505 1503 1502 1500 1498 1497 1495 1495 1494 1493 1493 1493 1493 1493 1493 1493 1492 1493 1493 1493 1491 1490 1490 1490 1488 1483 1481 1484 1485 1487 1489 1491 1492 1493 1494 1495 1496 1497 1497 1497 1497 1497 1497 1498 1497 1498 1496 1496 1496 1492 1491 1487 1485 1486 1479 1476 1481 1483 1485 1488 1490 1488 1485 1482 1477 1478 1485 1496 1502 1504 1510 1513 1512 1513 1509 1507 1508 1503 1502 1506 1509 1512 1513 1515 1517 1519 1523
1507 1505 1503 1502 1500 1498 1496 1495 1494 1493 1493 1493 1493 1493 1493 1491 1490 1489 1491 1492 1490 1486 1485 1486 1486 1484 1481 1481 1484 1485 1487 1490 1491 1491 1492 1493 1495 1495 1496 1497 1496 1495 1493 1492 1494 1494 1495 1496 1496 1494 1488 1485 1482 1479 1478 1471 1472 1478 1478 1481 1485 1488 1486 1480 1479 1477 1475 1486 1497 1501 1506 1510 1510 1511 1512 1507 1502 1503 1504 1506 1508 1509 1511 1512 1513 1515 1518 1521
1506 1505 1503 1501 1500 1498 1496 1495 1493 1493 1493 1493 1493 1493 1492 1489 1487 1487 1489 1488 1486 1485 1485 1486 1485 1483 1482 1483 1484 1486 1487 1489 1489 1490 1492 1493 1494 1493 1494 1494 1493 1493 1489 1486 1490 1492 1495 1496 1491 1486 1481 1477 1477 1477 1476 1473 1477 1482 1480 1480 1483 1485 1482 1474 1477 1478 1474 1484 1492 1494 1505 1509 1507 1509 1509 1505 1499 1498 1501 1504 1508 1509 1509 1511 1512 1514 1518 1520
1506 1505 1503 1502 1500 1497 1496 1494 1493 1493 1493 1493 1493 1492 1491 1491 1490 1490 1489 1484 1482 1484 1485 1485 1486 1485 1484 1485 1485 1486 1487 1487 1487 1489 1490 1492 1492 1490 1490 1491 1490 1488 1484 1483 1488 1493 1496 1495 1485 1479 1476 1474 1476 1476 1478 1479 1482 1485 1482 1482 1485 1483 1479 1475 1477 1478 1475 1482 1487 1486 1495 1501 1502 1502 1501 1503 1500 1497 1499 1500 1504 1508 1509 1512 1513 1514 1517 1519
1505 1504 1503 1501 1499 1498 1496 1494 1493 1493 1493 1493 1493 1492 1492 1492 1491 1491 1490 1485 1480 1481 1483 1483 1484 1484 1485 1485 1485 1486 1485 1483 1485 1487 1489 1491 1489 1488 1488 1488 1486 1483 1482 1483 1486 1492 1495 1490 1479 1475 1475 1476 1479 1478 1480 1485 1486 1486 1484 1486 1488 1481 1480 1484 1483 1480 1477 1478 1480 1482 1485 1487 1493 1496 1496 1501 1498 1495 1499 1500 1502 1507 1508 1511 1513 1515 1518 1518
1505 1503 1502 1501 1499 1498 1496 1494 1494 1493 1493 1493 1493 1493 1492 1492 1492 1491 1490 1485 1478 1478 1481 1482 1482 1483 1483 1483 1485 1485 1483 1481 1482 1484 1488 1489 1487 1488 1486 1484 1484 1482 1480 1481 1482 1487 1486 1479 1474 1473 1475 1479 1483 1483 1485 1489 1488 1486 1483 1483 1483 1480 1479 1482 1481 1480 1480 1478 1476 1481 1487 1483 1485 1493 1497 1496 1493 1493 1496 1499 1502 1505 1507 1511 1513 1517 1518 1518
1504 1503 1502 1500 1499 1497 1496 1495 1494 1493 1494 1493 1493 1493 1492 1493 1492 1491 1490 1484 1477 1476 1479 1481 1482 1481 1480 1482 1484 1483 1481 1479 1480 1482 1486 1487 1485 1486 1485 1483 1484 1481 1479 1480 1482 1484 1479 1472 1470 1474 1478 1481 1484 1486 1485 1487 1487 1485 1482 1477 1475 1476 1476 1477 1481 1485 1489 1490 1480 1480 1498 1495 1481 1485 1492 1490 1490 1494 1496 1498 1502 1506 1508 1511 1515 1521 1521 1518
1504 1503 1501 1500 1498 1497 1496 1495 1494 1495 1494 1493 1493 1493 1493 1493 1491 1491 1490 1481 1474 1474 1476 1479 1480 1479 1480 1482 1483 1483 1483 1479 1478 1481 1485 1486 1485 1484 1484 1482 1481 1478 1476 1478 1481 1480 1474 1469 1471 1476 1482 1485 1486 1485 1482 1482 1487 1484 1476 1472 1473 1473 1472 1474 1483 1490 1493 1491 1478 1476 1497 1503 1490 1489 1492 1492 1494 1498 1499 1500 1501 1506 1510 1511 1517 1524 1522 1519
1504 1503 1501 1500 1498 1497 1496 1494 1495 1495 1492 1492 1493 1493 1493 1492 1490 1491 1490 1483 1476 1471 1473 1477 1478 1477 1478 1480 1481 1483 1483 1478 1480 1483 1483 1485 1485 1484 1484 1480 1479 1479 1472 1476 1484 1479 1470 1472 1478 1481 1484 1486 1486 1485 1480 1479 1485 1480 1467 1469 1476 1477 1476 1475 1480 1488 1486 1479 1477 1476 1484 1500 1506 1501 1497 1499 1504 1506 1506 1506 1504 1504 1509 1513 1518 1522 1520 1520
1503 1502 1501 1500 1498 1497 1495 1495 1495 1493 1493 1493 1492 1493 1493 1491 1491 1490 1491 1492 1481 1469 1471 1476 1478 1478 1477 1480 1480 1478 1478 1476 1479 1483 1483 1485 1485 1484 1483 1478 1478 1478 1472 1477 1485 1476 1469 1475 1481 1484 1485 1486 1484 1480 1476 1478 1484 1478 1469 1472 1476 1479 1481 1480 1482 1488 1483 1479 1487 1482 1478 1500 1513 1503 1499 1506 1511 1514 1513 1512 1510 1506 1508 1511 1515 1518 1518 1520
1503 1502 1500 1499 1498 1496 1495 1494 1494 1493 1493 1493 1492 1494 1492 1492 1492 1488 1492 1495 1479 1468 1472 1475 1478 1479 1478 1479 1479 1477 1477 1476 1476 1478 1483 1485 1484 1482 1481 1478 1476 1476 1476 1478 1477 1471 1470 1475 1478 1481 1484 1482 1478 1474 1473 1479 1481 1475 1475 1479 1477 1479 1482 1484 1486 1488 1487 1488 1491 1483 1477 1498 1517 1510 1508 1514 1515 1516 1512 1508 1509 1507 1509 1510 1511 1515 1517 1517
1502 1501 1500 1499 1497 1496 1495 1493 1494 1493 1493 1492 1492 1492 1492 1493 1491 1490 1497 1492 1472 1468 1473 1474 1476 1477 1477 1478 1478 1477 1476 1476 1476 1478 1482 1483 1484 1483 1480 1479 1476 1473 1478 1479 1474 1471 1469 1473 1476 1476 1478 1476 1474 1475 1474 1478 1477 1473 1480 1484 1484 1485 1484 1486 1486 1484 1494 1498 1490 1482 1474 1490 1524 1527 1515 1514 1513 1510 1508 1506 1507 1505 1507 1511 1512 1514 1516 1517
1502 1501 1499 1498 1497 1496 1494 1493 1493 1493 1492 1492 1491 1492 1492 1490 1486 1492 1496 1480 1467 1472 1473 1472 1474 1473 1474 1475 1476 1476 1474 1475 1478 1479 1481 1480 1482 1483 1480 1482 1479 1477 1482 1481 1478 1477 1473 1478 1479 1475 1477 1475 1474 1476 1474 1475 1476 1476 1485 1487 1489 1494 1489 1492 1492 1490 1504 1505 1487 1481 1472 1481 1518 1526 1511 1509 1508 1505 1508 1509 1508 1506 1506 1509 1512 1513 1515 1517
1501 1501 1499 1497 1496 1494 1494 1493 1492 1492 1491 1491 1492 1492 1490 1488 1488 1490 1485 1473 1473 1475 1469 1469 1472 1471 1473 1472 1472 1475 1473 1475 1477 1476 1478 1478 1480 1480 1478 1480 1479 1483 1489 1482 1480 1483 1481 1481 1478 1476 1480 1478 1478 1480 1479 1482 1482 1482 1487 1488 1493 1501 1502 1509 1506 1499 1504 1497 1481 1478 1473 1481 1508 1514 1506 1507 1507 1505 1508 1508 1508 1508 1508 1508 1510 1512 1515 1517
1501 1500 1498 1497 1495 1493 1493 1492 1491 1491 1491 1491 1492 1489 1485 1491 1493 1483 1472 1471 1475 1471 1466 1468 1469 1468 1470 1470 1471 1473 1473 1475 1474 1473 1473 1473 1474 1475 1476 1475 1471 1478 1485 1478 1478 1485 1486 1482 1478 1482 1484 1480 1481 1484 1487 1490 1488 1488 1488 1488 1494 1501 1513 1521 1511 1502 1503 1492 1477 1471 1474 1493 1512 1511 1504 1505 1506 1506 1507 1508 1510 1509 1509 1510 1510 1512 1515 1517
1501 1499 1498 1496 1494 1493 1492 1491 1490 1490 1490 1492 1491 1486 1486 1493 1490 1477 1472 1472 1471 1469 1469 1467 1467 1468 1468 1468 1470 1470 1473 1476 1472 1472 1474 1474 1476 1477 1479 1478 1472 1473 1477 1475 1475 1480 1488 1490 1483 1483 1482 1480 1482 1481 1481 1483 1484 1485 1481 1480 1485 1487 1500 1510 1502 1501 1501 1490 1478 1470 1475 1499 1515 1510 1502 1503 1506 1507 1509 1510 1510 1510 1510 1511 1512 1514 1516 1518
1500 1499 1497 1495 1494 1493 1491 1491 1490 1489 1491 1491 1486 1483 1487 1491 1484 1477 1477 1475 1470 1471 1470 1467 1467 1470 1469 1470 1471 1469 1471 1476 1474 1475 1476 1475 1475 1474 1476 1477 1474 1475 1477 1478 1474 1471 1481 1486 1479 1478 1478 1478 1482 1479 1477 1481 1482 1480 1475 1478 1481 1474 1477 1485 1483 1482 1484 1484 1480 1475 1483 1497 1503 1503 1499 1501 1507 1508 1511 1513 1512 1513 1512 1512 1515 1516 1518 1520
1500 1498 1496 1495 1495 1494 1492 1491 1489 1490 1490 1489 1487 1484 1484 1485 1482 1480 1480 1477 1472 1470 1470 1471 1469 1469 1472 1474 1475 1473 1472 1473 1475 1475 1475 1474 1474 1474 1476 1478 1477 1478 1479 1481 1477 1468 1476 1484 1479 1481 1481 1477 1481 1480 1478 1483 1484 1478 1478 1482 1474 1464 1467 1476 1477 1470 1473 1485 1480 1480 1499 1506 1504 1507 1502 1502 1509 1509 1511 1514 1515 1516 1515 1515 1517 1518 1520 1521
1499 1498 1497 1496 1496 1494 1493 1491 1489 1491 1490 1488 1491 1489 1480 1481 1483 1480 1479 1479 1474 1470 1471 1475 1471 1469 1474 1477 1477 1476 1474 1474 1474 1475 1477 1480 1482 1484 1484 1483 1482 1481 1478 1480 1478 1466 1471 1485 1482 1480 1485 1482 1481 1483 1479 1478 1478 1478 1482 1476 1465 1467 1472 1478 1484 1477 1474 1485 1478 1480 1506 1513 1512 1519 1510 1505 1512 1513 1513 1515 1518 1520 1519 1519 1519 1520 1522 1522
1498 1498 1496 1496 1496 1494 1493 1491 1489 1490 1488 1485 1489 1488 1480 1481 1483 1480 1480 1479 1476 1474 1474 1475 1472 1470 1472 1474 1475 1474 1474 1476 1475 1474 1477 1482 1487 1489 1487 1485 1484 1482 1478 1479 1479 1468 1468 1484 1485 1479 1483 1483 1480 1485 1485 1479 1475 1476 1477 1470 1469 1483 1488 1486 1492 1487 1479 1483 1482 1488 1503 1506 1511 1517 1512 1511 1515 1516 1517 1517 1520 1523 1523 1523 1523 1522 1522 1522
1498 1496 1494 1494 1495 1495 1492 1491 1489 1488 1486 1484 1486 1487 1482 1482 1483 1482 1482 1480 1477 1477 1475 1473 1474 1473 1471 1472 1473 1472 1473 1475 1474 1473 1478 1483 1487 1490 1488 1487 1486 1483 1480 1478 1478 1472 1469 1482 1489 1480 1478 1482 1481 1484 1488 1484 1478 1475 1477 1473 1471 1479 1483 1483 1485 1482 1481 1482 1484 1496 1510 1513 1514 1515 1514 1517 1517 1517 1521 1520 1522 1525 1525 1526 1525 1524 1524 1523
1496 1492 1491 1494 1495 1494 1492 1490 1487 1484 1484 1485 1485 1485 1483 1483 1483 1483 1484 1481 1479 1479 1477 1473 1474 1475 1474 1472 1472 1472 1473 1474 1473 1475 1480 1483 1488 1491 1490 1490 1489 1485 1483 1481 1479 1477 1473 1479 1488 1484 1479 1483 1484 1482 1482 1482 1479 1480 1483 1481 1479 1478 1475 1475 1474 1471 1477 1480 1479 1497 1523 1529 1520 1515 1517 1519 1518 1519 1521 1522 1524 1526 1527 1528 1527 1527 1527 1525
1495 1489 1490 1494 1494 1493 1491 1488 1484 1481 1481 1484 1485 1486 1488 1487 1484 1484 1484 1482 1480 1480 1478 1475 1473 1473 1475 1476 1474 1475 1475 1474 1475 1477 1480 1483 1487 1491 1492 1492 1491 1488 1486 1484 1480 1479 1479 1479 1482 1484 1484 1484 1483 1479 1480 1481 1479 1481 1482 1478 1478 1479 1478 1485 1487 1473 1468 1472 1472 1490 1524 1534 1520 1514 1517 1517 1518 1520 1520 1521 1525 1527 1528 1529 1528 1529 1529 1528
1493 1488 1490 1494 1493 1492 1489 1485 1484 1483 1483 1487 1489 1489 1491 1490 1486 1485 1485 1483 1482 1480 1480 1479 1476 1475 1476 1477 1476 1476 1476 1477 1478 1479 1482 1485 1489 1491 1492 1493 1492 1489 1486 1483 1479 1480 1483 1480 1477 1480 1482 1482 1481 1481 1481 1482 1480 1480 1480 1475 1473 1473 1475 1487 1495 1483 1471 1470 1471 1490 1525 1536 1520 1514 1518 1518 1520 1522 1522 1523 1524 1527 1529 1530 1530 1531 1530 1530
1491 1489 1491 1493 1493 1491 1487 1484 1486 1487 1487 1491 1492 1491 1492 1491 1488 1487 1486 1485 1483 1482 1482 1482 1481 1481 1480 1479 1479 1479 1480 1483 1485 1484 1486 1491 1493 1495 1495 1494 1492 1489 1486 1484 1482 1483 1485 1482 1480 1485 1485 1482 1483 1484 1482 1483 1485 1485 1483 1480 1479 1477 1474 1477 1483 1483 1480 1475 1474 1496 1531 1539 1523 1517 1520 1521 1523 1524 1524 1525 1525 1527 1529 1530 1532 1533 1532 1532
1492 1492 1492 1493 1493 1490 1486 1484 1486 1489 1491 1492 1492 1493 1494 1493 1492 1491 1489 1489 1487 1484 1485 1485 1484 1484 1483 1482 1481 1481 1484 1489 1490 1488 1489 1492 1496 1498 1497 1495 1493 1491 1490 1491 1489 1488 1489 1485 1485 1494 1498 1494 1494 1495 1492 1491 1491 1488 1484 1483 1486 1484 1481 1482 1481 1484 1488 1481 1471 1489 1525 1535 1525 1521 1522 1522 1523 1524 1525 1527 1528 1529 1530 1531 1533 1534 1534 1534
1493 1492 1491 1492 1492 1490 1486 1485 1486 1489 1492 1493 1492 1493 1494 1495 1496 1495 1493 1492 1491 1488 1488 1489 1488 1486 1485 1485 1485 1485 1486 1489 1491 1491 1491 1493 1497 1499 1498 1497 1496 1494 1495 1497 1494 1491 1492 1488 1489 1499 1505 1506 1506 1503 1497 1492 1489 1487 1486 1489 1492 1489 1487 1489 1487 1489 1496 1489 1479 1492 1519 1530 1525 1523 1524 1523 1524 1526 1527 1528 1530 1532 1533 1533 1533 1534 1535 1535
1492 1490 1490 1490 1491 1490 1489 1490 1489 1489 1492 1493 1495 1495 1494 1495 1497 1497 1495 1494 1494 1492 1491 1491 1489 1488 1488 1487 1488 1489 1487 1487 1490 1492 1492 1495 1498 1499 1500 1499 1499 1499 1499 1499 1496 1493 1493 1491 1492 1500 1504 1504 1505 1499 1490 1485 1484 1487 1491 1493 1494 1491 1490 1491 1491 1493 1492 1488 1495 1508 1519 1526 1528 1525 1526 1527 1527 1528 1529 1530 1532 1533 1534 1535 1535 1536 1536 1536
1494 1493 1493 1493 1492 1491 1491 1492 1491 1491 1493 1494 1497 1497 1496 1496 1496 1497 1497 1496 1496 1495 1494 1493 1492 1490 1491 1490 1490 1492 1491 1489 1490 1491 1492 1495 1497 1499 1501 1500 1500 1502 1501 1499 1497 1495 1495 1494 1494 1498 1500 1499 1498 1495 1491 1487 1487 1490 1493 1495 1495 1493 1493 1492 1492 1494 1489 1490 1509 1519 1515 1521 1528 1526 1527 1530 1530 1530 1531 1531 1533 1534 1535 1536 1537 1536 1537 1537
1497 1498 1498 1498 1497 1494 1493 1495 1494 1494 1495 1496 1497 1498 1497 1497 1498 1498 1498 1498 1498 1497 1495 1496 1496 1493 1493 1493 1492 1494 1496 1494 1494 1495 1496 1497 1498 1499 1500 1500 1501 1503 1501 1499 1499 1498 1497 1495 1493 1495 1498 1497 1496 1495 1495 1493 1493 1495 1496 1496 1496 1494 1494 1493 1492 1493 1491 1494 1510 1517 1514 1520 1525 1524 1528 1531 1531 1533 1534 1533 1535 1536 1536 1538 1538 1537 1538 1538
1499 1500 1501 1500 1499 1498 1498 1499 1498 1496 1497 1499 1499 1499 1499 1499 1500 1501 1500 1499 1499 1498 1497 1499 1500 1498 1496 1496 1495 1497 1501 1501 1501 1501 1500 1498 1499 1498 1498 1500 1502 1502 1501 1500 1501 1502 1501 1497 1495 1497 1498 1498 1499 1498 1497 1497 1498 1498 1497 1497 1497 1495 1494 1494 1493 1493 1492 1494 1501 1511 1517 1522 1524 1526 1530 1532 1533 1536 1536 1536 1537 1536 1537 1539 1539 1539 1539 1540
1503 1503 1502 1500 1499 1500 1500 1499 1498 1497 1498 1500 1501 1502 1502 1501 1502 1503 1503 1502 1501 1501 1500 1500 1501 1500 1499 1499 1499 1501 1504 1504 1502 1503 1503 1502 1502 1500 1499 1501 1501 1501 1503 1503 1502 1504 1504 1502 1501 1502 1501 1500 1500 1499 1499 1500 1500 1499 1498 1498 1498 1497 1496 1496 1495 1494 1495 1498 1502 1509 1520 1527 1527 1529 1533 1534 1535 1536 1537 1537 1538 1537 1538 1539 1540 1541 1542 1542
1508 1507 1505 1502 1501 1502 1501 1499 1498 1496 1497 1500 1501 1503 1505 1504 1505 1506 1505 1505 1505 1504 1503 1503 1503 1503 1502 1503 1503 1504 1506 1506 1504 1504 1505 1505 1505 1504 1503 1504 1504 1503 1504 1504 1505 1505 1505 1504 1503 1506 1507 1502 1498 1501 1501 1500 1501 1501 1500 1499 1498 1498 1498 1497 1497 1496 1498 1502 1508 1515 1525 1530 1529 1531 1535 1536 1536 1536 1536 1538 1538 1540 1541 1540 1540 1542 1543 1544
1510 1509 1508 1504 1502 1502 1501 1498 1497 1498 1500 1504 1505 1506 1506 1506 1507 1508 1507 1507 1508 1507 1507 1506 1505 1504 1504 1507 1509 1509 1510 1509 1508 1508 1508 1508 1507 1506 1507 1507 1507 1506 1505 1505 1507 1506 1504 1504 1503 1507 1510 1501 1496 1501 1501 1503 1509 1508 1499 1496 1497 1497 1497 1497 1498 1500 1499 1502 1511 1519 1525 1526 1528 1530 1533 1535 1536 1537 1538 1539 1540 1543 1544 1543 1543 1543 1544 1546